STARLINK-11625, 63109

Orbit data source: Space-Track

STARLINK-11625, 63109 is a payload satellite owned by SpaceX/Seattle (US) in LEO that was launched on Thu, 27 Feb 2025 UTC via an FALCON 9 launch vehicle from the Air Force Eastern Test Range (AFETR). Payload-class satellites include a variety of spacecraft equipped with specific instruments for various scientific and technological missions. These include communications satellites like Starlink; space stations such as the ISS; scientific satellites like the Hubble; Earth observation satellites from companies like Planet Labs, Umbra, and HawkEye 360; GPS; miniature CubeSats for education and research; and military/defense satellites.

Loading next visibility...
Identifier
63109, 2025-039F
Orbit
LEO
Country
Flag of USUS
Related business
Manufacturer
SpaceX/Seattle
Mission
Operational Commercial Communications
Bus & Motor
STARLINK V2MD, Unknown motor
Mass
960 kg wet, ~910 kg dry
Launch date (UTC)
2025-02-27 (1 year ago)
Launch vehicle
FALCON 9
Launch site
Air Force Eastern Test Range (AFETR)
Object type
Payload
Rocket body
Debris
Shape & HBR
Box + 2 Pan, 18.1 m
Radar Cross Section
36.964 m², Large (>1 m²)

Expand to show TLE details & history
Last TLE update: 9 hours ago

TLE from 9 hours ago
0 STARLINK-11625
1 63109U 25039F   26150.90645252  .00184675  00000-0  14081-2 0  9992
2 63109  42.9999 101.4817 0001578 251.3069 108.7628 15.70888947 72549
Epoch: 2026-05-30T21:45Z
TLE epoch observation values (Epoch: 2026-05-30T21:45:17.497Z)
Latitude
0.00001°
Longitude
-113.25695°
Altitude
356.468 km
Speed
7.697 km/s
True Right ascension
06h 45m 55s
True Declination
0° 00' 00"
Sunlit
Object was in daylight at epoch
Visualization orbit readout
Latitude
Unknown
Longitude
Unknown
Altitude
Unknown
Speed
Unknown
Apparent Right ascension
Unknown
Apparent Declination
Unknown
Sunlit
N/A
Visualization observer readout
Local Sidereal Time
16:36:18
Azimuth
Unknown
Elevation
Unknown
Doppler factor
Unknown
Orbital elements
Apogee altitude
359.4 km
Perigee altitude
357.274 km
Semi-major axis
6,736.474 km
Eccentricity
0.00016
Inclination
42.9999°
RAAN
101.4817°
Arg. of periapsis
251.3069°
True anomaly
108.77992°
Mean anomaly
108.7628°
Eccentric anomaly
108.77136°
Mean motion
3.92549 °/min
Orbital period
91.71 mins
BSTAR
0.0014081
Loading maneuver chart data...
Computing Atmospheric mass density...
Loading historical data...
Loading historical data...
Loading historical data...
Loading historical data...
Loading historical data...
Loading historical data...
Loading historical data...

Documentation

Showing up to 5 results
|